FW7504 Weather Reports


time (UTC)temp
C
wind
direction
speed
KPH
gust
KPH
rain 1hr
cm
rain 24hr
cm
rain mn
cm
humidity
%
barometer
mb
20260904025554 28 0 0.0 1.6 0.00 0.00 0.00 75 1018.3
20260904025051 28 0 0.0 0.0 0.00 0.00 0.00 75 1018.3
20260904024603 28 0 0.0 0.0 0.00 0.00 0.00 74 1018.2
20260904024049 28 0 0.0 0.0 0.00 0.00 0.00 74 1018.2
20260904023548 28 0 0.0 0.0 0.00 0.00 0.00 74 1018.2
20260904023108 28 0 0.0 3.2 0.00 0.00 0.00 73 1018.2
20260904022551 28 0 0.0 3.2 0.00 0.00 0.00 73 1018.2
20260904022048 28 0 0.0 3.2 0.00 0.00 0.00 73 1018.1
20260904021601 28 0 0.0 3.2 0.00 0.00 0.00 73 1018.0
20260904021051 28 0 0.0 3.2 0.00 0.00 0.00 74 1018.0
20260904020552 28 0 0.0 0.0 0.00 0.00 0.00 73 1018.0
20260904020101 28 0 0.0 0.0 0.00 0.00 0.00 73 1018.0
20260904015551 29 0 0.0 0.0 0.00 0.00 0.00 73 1017.9
20260904015048 29 0 0.0 0.0 0.00 0.00 0.00 72 1017.7
20260904014608 29 0 0.0 0.0 0.00 0.00 0.00 72 1017.7
20260904014048 29 0 0.0 0.0 0.00 0.00 0.00 72 1017.8
20260904013551 30 0 0.0 0.0 0.00 0.00 0.00 71 1017.6
20260904013103 30 0 0.0 0.0 0.00 0.00 0.00 71 1017.4
20260904012551 30 0 0.0 0.0 0.00 0.00 0.00 70 1017.5
20260904012053 30 0 0.0 0.0 0.00 0.00 0.00 70 1017.3
20260904011601 30 0 0.0 0.0 0.00 0.00 0.00 70 1017.4
20260904011053 30 0 0.0 0.0 0.00 0.00 0.00 69 1017.3
20260904010554 30 0 0.0 0.0 0.00 0.00 0.00 68 1017.3
20260904010103 30 0 0.0 0.0 0.00 0.00 0.00 67 1017.2
20260904005555 30 0 0.0 0.0 0.00 0.00 0.00 68 1017.2
20260904005055 31 0 0.0 0.0 0.00 0.00 0.00 66 1017.2
20260904004603 31 0 0.0 0.0 0.00 0.00 0.00 67 1017.2
20260904004053 31 0 0.0 0.0 0.00 0.00 0.00 66 1016.9
20260904003554 31 0 0.0 0.0 0.00 0.00 0.00 65 1016.8
20260904003102 31 0 0.0 0.0 0.00 0.00 0.00 64 1016.8
20260904002557 31 0 0.0 0.0 0.00 0.00 0.00 64 1016.7
20260904002058 32 0 0.0 0.0 0.00 0.00 0.00 63 1016.5
20260904001601 32 0 0.0 0.0 0.00 0.00 0.00 63 1016.5
20260904001053 32 0 0.0 0.0 0.00 0.00 0.00 62 1016.5
20260904000553 32 0 0.0 0.0 0.00 0.00 0.00 61 1016.5
20260904000134 32 0 0.0 0.0 0.00 0.00 0.00 60 1016.4
20260903235552 33 0 0.0 0.0 0.00 0.00 0.00 60 1016.2
20260903235056 33 0 0.0 0.0 0.00 0.00 0.00 59 1016.2
20260903234600 33 0 0.0 0.0 0.00 0.00 0.00 59 1016.3
20260903234053 33 0 0.0 0.0 0.00 0.00 0.00 58 1016.2
20260903233554 33 0 0.0 0.0 0.00 0.00 0.00 58 1016.2
20260903233105 33 0 0.0 1.6 0.00 0.00 0.00 58 1016.3
20260903232553 33 0 0.0 1.6 0.00 0.00 0.00 58 1016.1
20260903232055 33 0 0.0 1.6 0.00 0.00 0.00 57 1016.2
20260903231600 33 0 0.0 1.6 0.00 0.00 0.00 57 1016.2
20260903231054 34 0 0.0 0.0 0.00 0.00 0.00 56 1016.1
20260903230554 34 0 0.0 0.0 0.00 0.00 0.00 56 1016.2
20260903230114 34 0 0.0 0.0 0.00 0.00 0.00 55 1016.2
20260903225553 34 0 0.0 1.6 0.00 0.00 0.00 53 1016.1
20260903225053 35 0 0.0 3.2 0.00 0.00 0.00 52 1016.1
20260903224610 35 0 0.0 6.4 0.00 0.00 0.00 52 1016.1
20260903224053 35 0 0.0 6.4 0.00 0.00 0.00 51 1016.1
20260903223554 35 96 0.0 6.4 0.00 0.00 0.00 51 1016.3
20260903223059 35 78 1.6 6.4 0.00 0.00 0.00 50 1016.3
20260903222553 35 92 3.2 6.4 0.00 0.00 0.00 50 1016.1
20260903222057 35 0 0.0 6.4 0.00 0.00 0.00 50 1016.2
20260903221606 36 0 0.0 4.8 0.00 0.00 0.00 50 1016.0
20260903221052 36 89 0.0 4.8 0.00 0.00 0.00 49 1016.1
20260903220553 36 91 0.0 9.7 0.00 0.00 0.00 49 1016.1
20260903220121 36 0 1.6 9.7 0.00 0.00 0.00 48 1016.0
20260903215553 35 62 3.2 11.3 0.00 0.00 0.00 49 1016.0
20260903215053 35 0 1.6 11.3 0.00 0.00 0.00 49 1016.1
20260903214600 35 0 1.6 11.3 0.00 0.00 0.00 49 1016.2
20260903214053 36 0 0.0 6.4 0.00 0.00 0.00 50 1016.2
20260903213556 35 0 1.6 6.4 0.00 0.00 0.00 50 1016.2
20260903213105 35 0 0.0 11.3 0.00 0.00 0.00 50 1016.2
20260903212553 35 89 1.6 11.3 0.00 0.00 0.00 49 1016.2
20260903212054 35 57 3.2 11.3 0.00 0.00 0.00 48 1016.3
20260903211620 35 90 4.8 11.3 0.00 0.00 0.00 47 1016.5
20260903211055 35 67 3.2 9.7 0.00 0.00 0.00 49 1016.6
20260903210553 35 91 3.2 14.5 0.00 0.00 0.00 50 1016.6
20260903210111 35 0 1.6 14.5 0.00 0.00 0.00 49 1016.7
20260903205552 35 14 6.4 14.5 0.00 0.00 0.00 50 1016.7
20260903205052 35 0 0.0 11.3 0.00 0.00 0.00 51 1016.7
20260903204603 35 100 1.6 11.3 0.00 0.00 0.00 52 1016.7
20260903204054 35 40 0.0 11.3 0.00 0.00 0.00 53 1016.7
20260903203553 35 82 1.6 6.4 0.00 0.00 0.00 53 1016.8
20260903203105 35 0 0.0 9.7 0.00 0.00 0.00 53 1016.9
20260903202553 35 0 1.6 11.3 0.00 0.00 0.00 53 1016.8
20260903202053 35 120 3.2 16.1 0.00 0.00 0.00 53 1016.9
20260903201605 35 109 4.8 17.7 0.00 0.00 0.00 52 1016.9
20260903201053 35 106 6.4 17.7 0.00 0.00 0.00 52 1017.0
20260903200553 35 120 3.2 17.7 0.00 0.00 0.00 53 1017.0
20260903200106 35 81 9.7 17.7 0.00 0.00 0.00 51 1017.1
20260903195556 35 94 3.2 12.9 0.00 0.00 0.00 52 1017.1
20260903195053 35 108 3.2 16.1 0.00 0.00 0.00 51 1017.2
20260903194601 35 61 4.8 16.1 0.00 0.00 0.00 51 1017.2
20260903194056 35 59 4.8 19.3 0.00 0.00 0.00 51 1017.2
20260903193552 35 0 4.8 19.3 0.00 0.00 0.00 52 1017.2
20260903193102 35 94 8.0 19.3 0.00 0.00 0.00 52 1017.2
20260903192554 35 95 3.2 11.3 0.00 0.00 0.00 51 1017.4
20260903192055 35 96 1.6 9.7 0.00 0.00 0.00 51 1017.4
20260903191605 35 0 0.0 12.9 0.00 0.00 0.00 51 1017.6
20260903191054 35 326 4.8 12.9 0.00 0.00 0.00 51 1017.6
20260903190553 35 352 0.0 6.4 0.00 0.00 0.00 50 1017.6
20260903190103 35 67 0.0 6.4 0.00 0.00 0.00 51 1017.6
20260903185552 35 347 0.0 6.4 0.00 0.00 0.00 51 1017.8
20260903185053 35 85 1.6 9.7 0.00 0.00 0.00 52 1017.9
20260903184616 34 70 1.6 9.7 0.00 0.00 0.00 53 1017.9
20260903184054 34 82 1.6 9.7 0.00 0.00 0.00 54 1018.1
20260903183553 34 61 3.2 9.7 0.00 0.00 0.00 54 1018.1
20260903183102 34 11 0.0 9.7 0.00 0.00 0.00 54 1018.1
20260903182553 33 13 3.2 11.3 0.00 0.00 0.00 56 1018.1
20260903182052 33 61 1.6 11.3 0.00 0.00 0.00 55 1018.3
20260903181557 33 95 0.0 4.8 0.00 0.00 0.00 54 1018.4
20260903181053 33 0 0.0 4.8 0.00 0.00 0.00 54 1018.4
20260903180553 33 98 0.0 4.8 0.00 0.00 0.00 53 1018.4
20260903180111 33 0 1.6 8.0 0.00 0.00 0.00 54 1018.4
20260903175552 34 22 3.2 8.0 0.00 0.00 0.00 54 1018.5
20260903175053 34 44 3.2 8.0 0.00 0.00 0.00 52 1018.4
20260903174613 34 0 0.0 3.2 0.00 0.00 0.00 54 1018.6
20260903174057 34 103 0.0 8.0 0.00 0.00 0.00 54 1018.6
20260903173554 34 0 1.6 11.3 0.00 0.00 0.00 53 1018.7
20260903173119 34 79 3.2 12.9 0.00 0.00 0.00 54 1018.7
20260903172553 34 72 4.8 12.9 0.00 0.00 0.00 55 1018.8
20260903172053 33 136 3.2 12.9 0.00 0.00 0.00 55 1018.8
20260903171607 33 103 0.0 6.4 0.00 0.00 0.00 58 1018.9
20260903171052 33 0 1.6 8.0 0.00 0.00 0.00 59 1019.1
20260903170553 33 0 3.2 11.3 0.00 0.00 0.00 59 1019.1
20260903170113 33 86 4.8 11.3 0.00 0.00 0.00 59 1019.3
20260903165554 33 0 0.0 6.4 0.00 0.00 0.00 61 1019.2
20260903165053 32 92 0.0 6.4 0.00 0.00 0.00 61 1019.4
20260903164605 32 0 1.6 6.4 0.00 0.00 0.00 62 1019.4
20260903164053 32 0 0.0 4.8 0.00 0.00 0.00 63 1019.3
20260903163552 32 318 0.0 6.4 0.00 0.00 0.00 64 1019.5
20260903163108 32 65 0.0 6.4 0.00 0.00 0.00 63 1019.4
20260903162553 32 0 0.0 6.4 0.00 0.00 0.00 65 1019.5
20260903162055 32 0 1.6 3.2 0.00 0.00 0.00 64 1019.6
20260903161603 32 28 1.6 3.2 0.00 0.00 0.00 63 1019.5
20260903161052 32 338 0.0 9.7 0.00 0.00 0.00 64 1019.6
20260903160552 32 61 3.2 9.7 0.00 0.00 0.00 64 1019.6
20260903155553 31 0 1.6 6.4 0.00 0.00 0.00 65 1019.7
20260903155053 31 113 1.6 8.0 0.00 0.00 0.00 65 1019.7
20260903154601 31 331 3.2 8.0 0.00 0.00 0.00 65 1019.7
20260903154053 31 65 1.6 8.0 0.00 0.00 0.00 66 1019.7
20260903153555 31 42 0.0 8.0 0.00 0.00 0.00 66 1019.7
20260903153102 31 0 1.6 8.0 0.00 0.00 0.00 66 1019.6
20260903152553 31 5 3.2 8.0 0.00 0.00 0.00 66 1019.7
20260903152053 31 0 3.2 8.0 0.00 0.00 0.00 66 1019.7
20260903151602 31 51 0.0 6.4 0.00 0.00 0.00 67 1019.7
20260903151053 31 0 0.0 4.8 0.00 0.00 0.00 67 1019.8
20260903150553 31 0 0.0 4.8 0.00 0.00 0.00 67 1019.8
20260903150114 31 0 0.0 4.8 0.00 0.00 0.00 68 1019.8
20260903145552 31 53 1.6 4.8 0.00 0.00 0.00 69 1019.7
20260903145052 30 10 0.0 6.4 0.00 0.00 0.00 70 1019.7
20260903144602 30 233 1.6 6.4 0.00 0.00 0.00 69 1019.8
20260903144054 30 0 1.6 6.4 0.00 0.00 0.00 70 1019.9
20260903143553 30 20 0.0 8.0 0.00 0.00 0.00 70 1019.8
20260903143103 30 342 1.6 8.0 0.00 0.00 0.00 70 1019.8
20260903142553 30 100 1.6 6.4 0.00 0.00 0.00 70 1019.9
20260903142052 30 0 1.6 4.8 0.00 0.00 0.00 71 1019.7
20260903141601 30 0 0.0 4.8 0.00 0.00 0.00 75 1019.8
20260903141054 30 0 1.6 4.8 0.00 0.00 0.00 75 1019.8
20260903140554 29 44 0.0 4.8 0.00 0.00 0.00 75 1019.9
20260903140101 29 0 0.0 6.4 0.00 0.00 0.00 76 1019.7
20260903135552 28 9 1.6 6.4 0.00 0.00 0.00 78 1019.7
20260903135052 28 17 1.6 6.4 0.00 0.00 0.00 78 1019.8
20260903134606 28 95 3.2 4.8 0.00 0.00 0.00 79 1019.8
20260903134050 27 0 0.0 4.8 0.00 0.00 0.00 80 1019.8
20260903133556 27 0 1.6 6.4 0.00 0.00 0.00 82 1019.9
20260903133106 27 40 1.6 6.4 0.00 0.00 0.00 82 1019.8
20260903132552 26 40 1.6 6.4 0.00 0.00 0.00 83 1019.9
20260903132052 26 343 1.6 6.4 0.00 0.00 0.00 83 1019.7
20260903131606 26 0 1.6 4.8 0.00 0.00 0.00 84 1019.8
20260903131056 26 0 1.6 6.4 0.00 0.00 0.00 86 1019.8
20260903130555 25 5 1.6 6.4 0.00 0.00 0.00 87 1019.8
20260903130117 25 350 1.6 6.4 0.00 0.00 0.00 87 1019.8
20260903125553 25 43 0.0 4.8 0.00 0.00 0.00 88 1019.8
20260903125054 25 32 1.6 4.8 0.00 0.00 0.00 88 1020.0
20260903124610 24 352 0.0 4.8 0.00 0.00 0.00 89 1020.0
20260903124052 24 0 1.6 4.8 0.00 0.00 0.00 89 1019.9
20260903123555 23 352 0.0 4.8 0.00 0.00 0.00 90 1020.0
20260903123102 23 0 0.0 4.8 0.00 0.00 0.00 90 1019.9
20260903122556 23 329 1.6 4.8 0.00 0.00 0.00 90 1020.0
20260903122053 23 0 0.0 4.8 0.00 0.00 0.00 90 1020.0
20260903121602 23 0 0.0 4.8 0.00 0.00 0.00 90 1020.0
20260903121052 23 0 1.6 4.8 0.00 0.00 0.00 91 1019.9
20260903120553 23 0 0.0 0.0 0.00 0.00 0.00 90 1019.8
20260903120106 23 0 0.0 3.2 0.00 0.00 0.00 90 1019.9
20260903115554 23 0 0.0 3.2 0.00 0.00 0.00 91 1019.7
20260903115052 23 360 0.0 1.6 0.00 0.00 0.00 91 1019.7
20260903114608 23 0 0.0 0.0 0.00 0.00 0.00 90 1019.7
20260903114052 23 0 0.0 0.0 0.00 0.00 0.00 90 1019.7
20260903113552 23 0 0.0 0.0 0.00 0.00 0.00 90 1019.6
20260903113102 23 0 0.0 0.0 0.00 0.00 0.00 89 1019.5
20260903112554 23 0 0.0 0.0 0.00 0.00 0.00 89 1019.3
20260903112053 23 0 0.0 0.0 0.00 0.00 0.00 89 1019.4
20260903111626 23 0 0.0 0.0 0.00 0.00 0.00 89 1019.3
20260903111052 23 0 0.0 0.0 0.00 0.00 0.00 90 1019.2
20260903110552 23 0 0.0 0.0 0.00 0.00 0.00 89 1019.2
20260903110113 23 0 0.0 0.0 0.00 0.00 0.00 90 1019.1
20260903105553 23 0 0.0 0.0 0.00 0.00 0.00 89 1019.1
20260903105053 23 0 0.0 0.0 0.00 0.00 0.00 89 1019.0
20260903104633 23 0 0.0 0.0 0.00 0.00 0.00 89 1018.9
20260903104053 23 0 0.0 0.0 0.00 0.00 0.00 89 1019.0
20260903103555 23 0 0.0 0.0 0.00 0.00 0.00 89 1018.9
20260903103105 23 0 0.0 0.0 0.00 0.00 0.00 89 1019.0
20260903102552 23 0 0.0 0.0 0.00 0.00 0.00 89 1018.9
20260903102052 23 0 0.0 0.0 0.00 0.00 0.00 89 1018.9
20260903101606 23 0 0.0 0.0 0.00 0.00 0.00 89 1018.8
20260903101053 23 0 0.0 0.0 0.00 0.00 0.00 88 1018.8
20260903100553 23 0 0.0 0.0 0.00 0.00 0.00 88 1018.8
20260903095552 23 0 0.0 0.0 0.00 0.00 0.00 88 1018.9
20260903095052 23 0 0.0 0.0 0.00 0.00 0.00 88 1018.8
20260903094609 23 0 0.0 0.0 0.00 0.00 0.00 88 1018.8
20260903094055 23 0 0.0 0.0 0.00 0.00 0.00 88 1018.8
20260903093556 23 0 0.0 0.0 0.00 0.00 0.00 87 1018.7
20260903093105 23 0 0.0 0.0 0.00 0.00 0.00 87 1018.7
20260903092552 23 0 0.0 0.0 0.00 0.00 0.00 87 1018.9
20260903092051 23 0 0.0 0.0 0.00 0.00 0.00 87 1018.8
20260903091612 23 0 0.0 0.0 0.00 0.00 0.00 87 1018.8
20260903091055 23 0 0.0 0.0 0.00 0.00 0.00 87 1018.7
20260903090553 23 0 0.0 0.0 0.00 0.00 0.00 87 1018.7
20260903090104 23 0 0.0 0.0 0.00 0.00 0.00 87 1018.7
20260903085552 23 0 0.0 0.0 0.00 0.00 0.00 87 1018.7
20260903085052 23 0 0.0 0.0 0.00 0.00 0.00 87 1018.7
20260903084600 23 0 0.0 0.0 0.00 0.00 0.00 86 1018.7
20260903084052 24 0 0.0 0.0 0.00 0.00 0.00 86 1018.6
20260903083553 24 0 0.0 0.0 0.00 0.00 0.00 86 1018.7
20260903083100 24 0 0.0 0.0 0.00 0.00 0.00 86 1018.6
20260903082552 24 0 0.0 0.0 0.00 0.00 0.00 86 1018.7
20260903082052 24 0 0.0 0.0 0.00 0.00 0.00 86 1018.6
20260903081603 24 0 0.0 0.0 0.00 0.00 0.00 86 1018.6
20260903081055 24 0 0.0 0.0 0.00 0.00 0.00 86 1018.6
20260903080555 24 0 0.0 0.0 0.00 0.00 0.00 85 1018.7
20260903075556 24 0 0.0 0.0 0.00 0.00 0.00 86 1018.6
20260903075052 24 0 0.0 0.0 0.00 0.00 0.00 86 1018.8
20260903074604 24 0 0.0 0.0 0.00 0.00 0.00 85 1018.8
20260903074053 24 0 0.0 0.0 0.00 0.00 0.00 85 1018.6
20260903073553 24 0 0.0 0.0 0.00 0.00 0.00 85 1018.7
20260903073111 25 0 0.0 0.0 0.00 0.00 0.00 85 1018.6
20260903072556 25 0 0.0 0.0 0.00 0.00 0.00 84 1018.6
20260903072053 25 0 0.0 0.0 0.00 0.00 0.00 84 1018.6
20260903071605 25 0 0.0 0.0 0.00 0.00 0.00 84 1018.5
20260903071052 25 0 0.0 0.0 0.00 0.00 0.00 84 1018.6
20260903070554 25 0 0.0 0.0 0.00 0.00 0.00 84 1018.5
20260903070103 25 0 0.0 0.0 0.00 0.00 0.00 84 1018.4
20260903065552 25 0 0.0 0.0 0.00 0.00 0.00 84 1018.4
20260903065052 25 0 0.0 0.0 0.00 0.00 0.00 83 1018.4
20260903064601 25 0 0.0 0.0 0.00 0.00 0.00 83 1018.3
20260903064052 25 0 0.0 0.0 0.00 0.00 0.00 83 1018.3
20260903063552 25 0 0.0 0.0 0.00 0.00 0.00 83 1018.5
20260903063102 25 0 0.0 0.0 0.00 0.00 0.00 83 1018.6
20260903062553 25 0 0.0 0.0 0.00 0.00 0.00 83 1018.6
20260903062053 25 0 0.0 0.0 0.00 0.00 0.00 82 1018.7
20260903061612 25 0 0.0 0.0 0.00 0.00 0.00 82 1018.7
20260903061050 25 0 0.0 0.0 0.00 0.00 0.00 82 1018.9
20260903060553 25 0 0.0 0.0 0.00 0.00 0.00 82 1018.6
20260903060108 25 0 0.0 0.0 0.00 0.00 0.00 82 1018.9
20260903055553 25 0 0.0 0.0 0.00 0.00 0.00 82 1018.9
20260903055053 25 0 0.0 0.0 0.00 0.00 0.00 82 1019.0
20260903054601 26 0 0.0 0.0 0.00 0.00 0.00 82 1019.0
20260903054052 26 0 0.0 0.0 0.00 0.00 0.00 81 1018.8
20260903053551 26 0 0.0 0.0 0.00 0.00 0.00 81 1018.7
20260903053112 26 0 0.0 0.0 0.00 0.00 0.00 81 1018.7
20260903052550 26 0 0.0 0.0 0.00 0.00 0.00 80 1018.7
20260903052052 26 0 0.0 0.0 0.00 0.00 0.00 81 1018.8
20260903051602 26 0 0.0 0.0 0.00 0.00 0.00 81 1018.7
20260903051051 26 0 0.0 0.0 0.00 0.00 0.00 80 1018.7
20260903050552 26 0 0.0 0.0 0.00 0.00 0.00 80 1018.7
20260903050107 26 0 0.0 0.0 0.00 0.00 0.00 80 1018.7
20260903045549 26 0 0.0 0.0 0.00 0.00 0.00 80 1018.8
20260903045051 26 0 0.0 0.0 0.00 0.00 0.00 80 1018.7
20260903044608 26 0 0.0 0.0 0.00 0.00 0.00 80 1018.6
20260903044053 26 0 0.0 0.0 0.00 0.00 0.00 80 1018.7
20260903043551 26 0 0.0 0.0 0.00 0.00 0.00 79 1018.7
20260903043104 26 0 0.0 0.0 0.00 0.00 0.00 78 1018.6
20260903042552 26 0 0.0 0.0 0.00 0.00 0.00 78 1018.6
20260903042053 26 0 0.0 3.2 0.00 0.00 0.00 78 1018.7
20260903041604 26 0 0.0 3.2 0.00 0.00 0.00 78 1018.7
20260903041053 27 0 0.0 1.6 0.00 0.00 0.00 77 1018.6
20260903040552 27 0 0.0 1.6 0.00 0.00 0.00 77 1018.6
20260903040109 27 0 0.0 0.0 0.00 0.00 0.00 77 1018.6
20260903035549 27 0 0.0 0.0 0.00 0.00 0.00 77 1018.5
20260903035049 27 0 0.0 0.0 0.00 0.00 0.00 76 1018.6
20260903034601 27 0 0.0 0.0 0.00 0.00 0.00 76 1018.7
20260903034053 27 0 0.0 0.0 0.00 0.00 0.00 74 1018.8
20260903033551 27 0 0.0 0.0 0.00 0.00 0.00 74 1018.7
20260903033058 27 0 0.0 0.0 0.00 0.00 0.00 74 1018.7
20260903032552 27 0 0.0 0.0 0.00 0.00 0.00 75 1018.7
20260903032054 27 0 0.0 0.0 0.00 0.00 0.00 76 1018.6
20260903031607 28 0 0.0 0.0 0.00 0.00 0.00 76 1018.7
20260903031052 28 0 0.0 0.0 0.00 0.00 0.00 75 1018.7
20260903030552 28 0 0.0 0.0 0.00 0.00 0.00 75 1018.7